This demonstration page uses our WeatherBlox Daily Observations layout. Learn more.

Left ArrowRight Arrow

39.29038, -76.61219

Hourly Observations for February 20, 2021

Temp ( °F °C ) Dew Point ( °F °C ) Humidity (%) Winds ( mph kmh ) Pressure ( in mb ) Visibility ( mi km ) Precip ( " mm )
12:54 am 00:54 Mostly Cloudy 31 -0.6 17 -8.3 56 56 WNW 12 19 30.17 1022 10 16 N/A
1:54 am 01:54 Mostly Cloudy 30 -1.1 16 -8.9 56 56 WNW 16 26 30.18 1022 10 16 N/A
2:54 am 02:54 Mostly Cloudy 30 -1.1 15 -9.4 54 54 WNW 10 17 30.18 1022 10 16 N/A
3:54 am 03:54 Mostly Cloudy 30 -1.1 16 -8.9 56 56 WNW 16 26 30.18 1022 10 16 N/A
4:19 am 04:19 Mostly Cloudy with Light Snow 30 -1.1 15 -9.4 54 54 NW 14 22 30.19 1022 9 14 0.00 0.00
4:43 am 04:43 Partly Cloudy 29 -1.7 14 -10 54 54 NW 15 24 30.19 1022 10 16 0.00 0.00
4:54 am 04:54 Partly Cloudy 28 -2.2 14 -10 56 56 WNW 10 17 30.19 1022 10 16 0.00 0.00
5:54 am 05:54 Partly Cloudy 27 -2.8 14 -10 58 58 WNW 9 15 30.20 1023 10 16 N/A
6:54 am 06:54 Mostly Cloudy 26 -3.3 12 -11.1 55 55 WNW 9 15 30.20 1023 10 16 N/A
7:54 am 07:54 Partly Cloudy 27 -2.8 11 -11.7 51 51 W 14 22 30.24 1024 10 16 N/A
8:54 am 08:54 Partly Cloudy 29 -1.7 10 -12.2 45 45 W 16 26 30.26 1025 10 16 N/A
9:54 am 09:54 Partly Cloudy 30 -1.1 10 -12.2 43 43 W 20 31 30.26 1025 10 16 N/A
10:54 am 10:54 Partly Cloudy 31 -0.6 10 -12.2 42 42 WNW 17 28 30.26 1025 10 16 N/A
11:54 am 11:54 Mostly Cloudy 31 -0.6 11 -11.7 43 43 WNW 13 20 30.27 1025 10 16 N/A
12:54 pm 12:54 Partly Cloudy 32 undefined 10 -12.2 40 40 NW 13 20 30.24 1024 10 16 N/A
1:54 pm 13:54 Mostly Cloudy 31 -0.6 10 -12.2 42 42 NW 14 22 30.24 1024 10 16 0.00 0.00
2:54 pm 14:54 Mostly Cloudy 31 -0.6 9 -12.8 40 40 W 20 31 30.24 1024 10 16 0.00 0.00
3:54 pm 15:54 Partly Cloudy 31 -0.6 8 -13.3 38 38 WNW 24 39 30.25 1024 10 16 N/A
4:54 pm 16:54 Partly Cloudy 30 -1.1 7 -13.9 38 38 WNW 18 30 30.27 1025 10 16 N/A
5:54 pm 17:54 Partly Cloudy 28 -2.2 7 -13.9 41 41 WNW 16 26 30.31 1026 10 16 N/A
6:54 pm 18:54 Mostly Clear 27 -2.8 7 -13.9 43 43 WNW 16 26 30.34 1028 10 16 N/A
7:54 pm 19:54 Mostly Clear 26 -3.3 7 -13.9 44 44 WNW 15 24 30.37 1029 10 16 N/A
8:54 pm 20:54 Mostly Clear 25 -3.9 8 -13.3 48 48 W 10 17 30.40 1029 10 16 N/A
9:54 pm 21:54 Clear 24 -4.4 8 -13.3 50 50 W 9 15 30.42 1030 10 16 N/A
10:54 pm 22:54 Clear 25 -3.9 9 -12.8 50 50 W 9 15 30.45 1031 10 16 N/A
11:54 pm 23:54 Clear 25 -3.9 9 -12.8 50 50 WNW 9 15 30.46 1032 10 16 N/A

Powered by AerisWeather